This demonstration page uses our WeatherBlox Daily Observations layout. Learn more.

38.88101, -77.10428

Hourly Observations for January 13, 2016

Temp ( °F °C ) Dew Point ( °F °C ) Humidity (%) Winds ( mph kmh ) Pressure ( in mb ) Visibility ( mi km ) Precip ( " mm )
12:52 am 00:52 Mostly Clear 27 -3 7 -14 43 43 W 14 22 30.03 1017 10 16.09344 0 0
1:52 am 01:52 Clear 25 -4 5 -15 42 42 WNW 12 19 30.06 1018 10 16.09344 0 0
2:52 am 02:52 Clear 25 -4 3 -16 39 39 WNW 15 24 30.09 1019 10 16.09344 0 0
3:52 am 03:52 Clear 23 -5 5 -15 46 46 W 10 17 30.12 1020 10 16.09344 0 0
4:52 am 04:52 Clear 23 -5 3 -16 42 42 WNW 21 33 30.15 1021 10 16.09344 0 0
5:52 am 05:52 Clear 21 -6 3 -16 45 45 WNW 12 19 30.18 1022 10 16.09344 0 0
6:52 am 06:52 Clear 21 -6 3 -16 45 45 NW 8 13 30.18 1022 10 16.09344 0 0
7:52 am 07:52 Sunny 21 -6 3 -16 45 45 WNW 8 13 30.21 1023 10 16.09344 0 0
8:52 am 08:52 Sunny 25 -4 3 -16 39 39 WNW 10 17 30.21 1023 10 16.09344 0 0
9:52 am 09:52 Mostly Sunny 25 -4 1 -17 36 36 W 9 15 30.21 1023 10 16.09344 0 0
10:52 am 10:52 Mostly Sunny 27 -3 1 -17 33 33 WNW 16 26 30.21 1023 10 16.09344 0 0
11:52 am 11:52 Mostly Sunny 28 -2 1 -17 31 31 WNW 12 19 30.18 1022 10 16.09344 0 0
12:52 pm 12:52 Partly Cloudy 28 -2 1 -17 31 31 W 13 20 30.15 1021 10 16.09344 0 0
1:52 pm 13:52 Partly Cloudy 30 -1 1 -17 29 29 NW 17 28 30.12 1020 10 16.09344 0 0
2:52 pm 14:52 Mostly Cloudy 32 0 3 -16 29 29 WNW 10 17 30.09 1019 10 16.09344 0 0
3:52 pm 15:52 Mostly Cloudy 30 -1 3 -16 31 31 WNW 10 17 30.12 1020 10 16.09344 0 0
4:52 pm 16:52 Mostly Cloudy 30 -1 3 -16 31 31 NW 8 13 30.12 1020 10 16.09344 0 0
5:52 pm 17:52 Mostly Cloudy 30 -1 3 -16 31 31 WNW 6 9 30.12 1020 10 16.09344 0 0
6:52 pm 18:52 Mostly Cloudy 30 -1 3 -16 31 31 SW 5 7 30.12 1020 10 16.09344 0 0
7:52 pm 19:52 Mostly Cloudy 27 -3 7 -14 43 43 N 9 15 30.12 1020 10 16.09344 0 0
8:52 pm 20:52 Mostly Cloudy 27 -3 3 -16 36 36 N 3 6 30.09 1019 10 16.09344 0 0
9:52 pm 21:52 Partly Cloudy 27 -3 7 -14 43 43 NNW 6 9 30.09 1019 10 16.09344 0 0
10:52 pm 22:52 Mostly Cloudy 28 -2 7 -14 40 40 ESE 3 6 30.09 1019 10 16.09344 0 0
11:52 pm 23:52 Cloudy 28 -2 7 -14 40 40 E 6 9 30.06 1018 10 16.09344 0 0

Powered by AerisWeather